Location: Lafig�re
(44.4503°N, 4.0357°E)
Time: 14:25:52
(UTC+00:00)

Transit 2A Rocket - Pass Details

Date: 25 January 2021
Orbit: 594 x 908 km, 66.7° (Epoch: 06 March)

Event Time Altitude Azimuth Distance (km) Brightness Sun altitude
Rises 20:36:39 0° 324° (NW) 2,904 8.6 -41.3°
Enters shadow 20:37:38 - 323° (NW) 2,506 8.2 -41.5°
Reaches altitude 10° 20:38:59 10° 321° (NW) 1,968 - -41.7°
Maximum altitude 20:43:17 59° 243° (WSW) 694 - -42.5°
Drops below altitude 10° 20:47:29 10° 163° (SSE) 1,923 - -43.2°
Sets 20:49:44 0° 160° (SSE) 2,831 - -43.6°
